Regional Weather Roundup
Issued by NWS Portland, ME

Home | Current Version | Previous Version | Text Only | Print | Product List | Glossary On
Versions: 1 2 3 4 5 6 7 8 9 10 11 12 13 14 15 16 17 18 19 20 21 22 23 24 25 26 27 28 29 30 31 32 33 34 35 36 37 38 39 40 41 42 43 44 45 46 47 48 49 50
000
ASUS41 KGYX 240210
RWRGYX
WEATHER ROUNDUP FOR MAINE AND NEW HAMPSHIRE
NATIONAL WEATHER SERVICE GRAY ME
1000 PM EDT TUE AUG 23 2016

MEZ002-005-006-010-012-015-018-020-021-024-026-027-029-240300-
MAINE

CITY           SKY/WX    TMP DP  RH WIND       PRES   REMARKS
PORTLAND       CLEAR     66  56  70 S3        30.19R
SANFORD        CLEAR     59  55  87 CALM      30.21
BAR HARBOR     CLEAR     63  56  78 S6        30.18R
WISCASSET      CLEAR     61  56  83 CALM      30.20R
ROCKLAND       CLEAR     65  59  81 SW7       30.19R
FRYEBURG       CLEAR     65  52  62 CALM      30.20R
LEWISTONAUBURN CLEAR     63  56  78 CALM      30.19R
AUGUSTA        CLEAR     64  56  75 SE3       30.19R
WATERVILLE     CLEAR     62  56  80 SW7       30.15R
BANGOR         PTCLDY    66  53  63 SW7       30.17R
GREENVILLE       N/A     64  48  56 CALM      30.16R
MILLINOCKET    PTCLDY    62  55  77 S5        30.15R
HOULTON        PTCLDY    67  54  63 S6        30.08S
PRESQUE ISLE   MOCLDY    66  54  65 SW5       30.09R
FRENCHVILLE    MOCLDY    66  52  60 SW6       30.05S
CARIBOU        MOCLDY    66  53  63 SW6       30.06R
$$

NHZ002-005-008-009-011-012-014-240300-
NEW HAMPSHIRE

CITY           SKY/WX    TMP DP  RH WIND       PRES   REMARKS
PORTSMOUTH     CLEAR     67  53  61 SW6       30.20R
ROCHESTER      CLEAR     65  52  62 CALM      30.21R
NASHUA         CLEAR     67  55  65 CALM      30.23R
MANCHESTER     CLEAR     70  52  52 CALM      30.20S
CONCORD        CLEAR     68  52  56 CALM      30.22
LACONIA        CLEAR     67  53  61 SW5       30.23R
PLYMOUTH       FAIR      57  55  92 CALM      30.22S
BERLIN         CLEAR     55  51  86 CALM      30.21R
WHITEFIELD     CLEAR     58  53  84 CALM      30.22R
JAFFREY        CLEAR     60  54  80 S5        30.26S
KEENE          CLEAR     60  57  89 CALM      30.25R
LEBANON        CLEAR     63  57  81 CALM      30.22R
MT WASHINGTON  FOG       46  46 100 W51         N/A  VSB 1/16
$$

VTZ005-007-008-240300-
VERMONT

CITY           SKY/WX    TMP DP  RH WIND       PRES   REMARKS
ST JOHNSBURY     N/A     62  57  83 MISG      30.19R
MONTPELIER     CLEAR     65  55  70 S5        30.26R
BURLINGTON     CLEAR     69  56  62 S5        30.20R
$$

MAZ007-012-024-CTZ003-RIZ002-NYZ038-NYZ072-240300-
SOUTHERN NEW ENGLAND AND NY

CITY           SKY/WX    TMP DP  RH WIND       PRES   REMARKS
BOSTON         CLEAR     74  54  49 SW9       30.22R
WORCESTER      CLEAR     63  53  70 SW7       30.26S
NANTUCKET      CLEAR     66  57  72 SW8       30.26S
PROVIDENCE     CLEAR     68  56  65 SW8       30.25
HARTFORD       CLEAR     68  56  65 W5        30.25
ALBANY         CLEAR     67  59  75 CALM      30.24
NEW YORK CITY  CLEAR     77  59  53 S5        30.26R
$$

ANZ081-ANZ082-ANZ150-NHZ014-MEZ023>029-240300-
COASTAL MARINE OBSERVATIONS

STATION/POSITION TIME  TEMP    WIND        PRES    WAVE
                       AIR SEA DIR/SP/G            HT/PER
                 (UTC) (F)     (DEG/KT/KT) (MB)    (FT/S)
MOUNT DESERT ROC 0200   63     200/ 19/ 20 1022.2R
MATINICUS ROCK   0200   63     220/ 19/ 20 1022.0R
ISLE OF SHOALS   0200   72     240/ 14/ 15 1022.5R
JEFFREYS LEDGE   0108      66                N/A     2/ 3
CASHES LEDGE BUO 0150   71 69  200/ 16/ 19 1022.9R   3/ 4
GEORGES BANK BUO 0050   65 66              1024.7    4/ 5
$$

.............KEY..............
   WCI - WIND CHILL
   TC  - TEMPERATURE IN CELSIUS
   VSB - VISIBILITY IN MILES
   HX  - HEAT INDEX
   FAIR- INDICATES FEW OR NO CLOUDS BELOW 12,000 FT, WITH NO
         SIGNIFICANT WEATHER AND/OR OBSTRUCTIONS TO VISIBILITY.





USA.gov is the U.S. government's official web portal to all federal, state and local government web resources and services.